Location: ??
(35.5052°N, 139.7262°E)
Time: 17:51:35
(UTC+00:00)

Meteor 1-27 Rocket - Pass Details

Date: 20 June 2021
Orbit: 830 x 910 km, 81.3° (Epoch: 30 July)

Event Time Altitude Azimuth Distance (km) Brightness Sun altitude
Rises 18:10:11 0° 356° (N) 3,407 7.4 -13.3°
Reaches altitude 10° 18:12:40 10° 360° (N) 2,459 6.7 -12.9°
Maximum altitude 18:18:08 59° 79° (E) 957 4.3 -12.1°
Drops below altitude 10° 18:23:32 10° 159° (SSE) 2,426 5.9 -11.3°
Sets 18:25:58 0° 163° (SSE) 3,357 6.6 -10.9°
